QPF
0.00 0.00 0.00 0.00 0.00 0.00 0.00 0.00 0.00 0.00 0.00 0.00 0.01 0.01 0.03 0.00 0.00 0.00 0.00 0.00 0.00 0.00 0.00 0.01 0.01 0.00 0.00 0.00 0.00 0.00 0.00 0.00 0.01 0.02 0.00 0.00 0.00 0.00 0.00 0.00 0.00 0.00 0.00 0.00
0.00 0.00 0.00 0.00 0.00 0.00 0.00 0.00 0.00 0.00 0.00 0.00 0.00 0.00 0.00 0.00 0.00 0.00 0.00 0.00 0.00 0.00 0.00 0.01 0.00 0.00 0.00 0.00 0.00 0.00 0.00 0.00 0.02 0.08 0.02 0.00 0.00 0.00 0.00 0.00 0.00 0.00 0.00 0.00
0.00 0.00 0.00 0.00 0.00 0.00 0.00 0.00 0.00 0.00 0.00 0.00 0.01 0.00 0.00 0.00 0.00 0.00 0.00 0.00 0.00 0.00 0.00 0.00 0.00 0.00 0.00 0.00 0.00 0.00 0.00 0.01 0.08 0.05 0.09 0.02 0.00 0.00 0.00 0.00 0.00 0.00 0.00 0.00
0.00 0.00 0.00 0.00 0.00 0.00 0.00 0.00 0.00 0.00 0.00 0.00 0.00 0.00 0.00 0.00 0.00 0.00 0.00 0.00 0.00 0.00 0.00 0.00 0.00 0.00 0.00 0.00 0.00 0.04 0.05 0.07 0.18 0.12 0.22 0.16 0.04 0.02 0.00 0.00 0.00 0.00 0.00 0.00
0.00 0.00 0.00 0.00 0.00 0.00 0.00 0.00 0.00 0.00 0.02 0.01 0.00 0.00 0.00 0.00 0.00 0.00 0.00 0.00 0.00 0.00 0.00 0.00 0.00 0.00 0.00 0.00 0.00 0.06 0.17 0.18 0.23 0.23 0.23 0.19 0.07 0.05 0.01 0.00 0.01 0.00 0.00 0.00
0.00 0.00 0.00 0.00 0.00 0.00 0.00 0.00 0.00 0.00 0.01 0.00 0.00 0.00 0.00 0.00 0.00 0.00 0.00 0.00 0.00 0.00 0.00 0.00 0.00 0.00 0.00 0.00 0.00 0.02 0.07 0.07 0.14 0.28 0.44 0.43 0.23 0.10 0.08 0.02 0.00 0.01 0.00 0.00
0.00 0.00 0.00 0.00 0.00 0.00 0.00 0.00 0.02 0.01 0.00 0.00 0.00 0.00 0.00 0.00 0.00 0.00 0.00 0.00 0.00 0.00 0.00 0.00 0.00 0.01 0.00 0.00 0.00 0.00 0.01 0.07 0.15 0.26 0.33 0.26 0.25 0.22 0.12 0.06 0.01 0.01 0.01 0.00
0.00 0.00 0.02 0.02 0.01 0.00 0.00 0.00 0.00 0.00 0.00 0.00 0.00 0.00 0.00 0.00 0.00 0.00 0.00 0.00 0.00 0.02 0.04 0.05 0.02 0.01 0.00 0.00 0.00 0.01 0.02 0.00 0.00 0.00 0.03 0.04 0.14 0.26 0.30 0.14 0.04 0.02 0.02 0.01
0.00 0.01 0.01 0.01 0.05 0.00 0.00 0.00 0.00 0.00 0.00 0.00 0.00 0.00 0.00 0.00 0.00 0.00 0.00 0.00 0.00 0.00 0.01 0.01 0.00 0.00 0.02 0.07 0.02 0.00 0.00 0.00 0.00 0.00 0.00 0.00 0.01 0.04 0.05 0.05 0.03 0.03 0.04 0.01
0.01 0.02 0.00 0.00 0.00 0.00 0.00 0.00 0.00 0.00 0.00 0.00 0.00 0.00 0.00 0.00 0.00 0.00 0.00 0.00 0.00 0.00 0.00 0.00 0.00 0.02 0.01 0.02 0.03 0.03 0.00 0.01 0.00 0.00 0.02 0.01 0.01 0.00 0.00 0.00 0.00 0.02 0.03 0.02
0.00 0.00 0.00 0.01 0.00 0.00 0.00 0.00 0.00 0.00 0.00 0.00 0.00 0.00 0.00 0.00 0.00 0.00 0.00 0.00 0.00 0.00 0.00 0.00 0.00 0.00 0.00 0.00 0.00 0.00 0.00 0.00 0.00 0.01 0.01 0.01 0.03 0.04 0.04 0.01 0.02 0.02 0.02 0.01
0.01 0.00 0.02 0.11 0.00 0.00 0.00 0.00 0.00 0.00 0.00 0.00 0.00 0.00 0.00 0.00 0.00 0.00 0.00 0.00 0.00 0.00 0.00 0.00 0.00 0.00 0.00 0.00 0.00 0.00 0.00 0.00 0.00 0.00 0.00 0.00 0.00 0.00 0.00 0.00 0.01 0.02 0.01 0.00
0.02 0.00 0.00 0.01 0.00 0.00 0.00 0.00 0.00 0.01 0.01 0.00 0.00 0.00 0.00 0.00 0.00 0.00 0.00 0.00 0.00 0.00 0.00 0.00 0.00 0.00 0.00 0.00 0.00 0.00 0.00 0.00 0.00 0.00 0.00 0.00 0.00 0.00 0.00 0.00 0.00 0.00 0.00 0.00
0.01 0.00 0.01 0.00 0.00 0.00 0.00 0.03 0.07 0.10 0.08 0.04 0.02 0.00 0.00 0.00 0.00 0.00 0.00 0.00 0.00 0.00 0.00 0.00 0.00 0.00 0.00 0.00 0.00 0.00 0.00 0.00 0.00 0.00 0.00 0.00 0.00 0.00 0.00 0.00 0.00 0.00 0.00 0.00
0.01 0.01 0.01 0.00 0.04 0.08 0.11 0.14 0.15 0.13 0.11 0.08 0.04 0.06 0.03 0.01 0.00 0.00 0.00 0.00 0.00 0.00 0.00 0.00 0.00 0.00 0.00 0.00 0.00 0.00 0.00 0.00 0.00 0.00 0.00 0.00 0.00 0.00 0.00 0.00 0.00 0.00 0.00 0.00
0.00 0.00 0.00 0.00 0.02 0.10 0.09 0.09 0.11 0.14 0.13 0.10 0.09 0.10 0.09 0.05 0.01 0.00 0.00 0.00 0.00 0.00 0.00 0.00 0.00 0.00 0.00 0.00 0.00 0.00 0.00 0.00 0.00 0.00 0.00 0.00 0.00 0.00 0.00 0.00 0.00 0.00 0.00 0.00
0.00 0.00 0.00 0.00 0.01 0.04 0.04 0.00 0.00 0.00 0.00 0.01 0.00 0.00 0.00 0.00 0.00 0.00 0.00 0.00 0.00 0.00 0.00 0.00 0.00 0.00 0.00 0.00 0.00 0.00 0.00 0.00 0.00 0.00 0.00 0.00 0.00 0.00 0.00 0.00 0.00 0.01 0.00 0.00
0.00 0.00 0.00 0.00 0.01 0.01 0.01 0.00 0.00 0.00 0.00 0.00 0.00 0.00 0.00 0.00 0.00 0.00 0.00 0.00 0.00 0.00 0.00 0.00 0.00 0.00 0.00 0.00 0.00 0.00 0.00 0.00 0.00 0.00 0.00 0.00 0.00 0.00 0.00 0.00 0.01 0.00 0.00 0.00
0.00 0.00 0.00 0.00 0.00 0.00 0.00 0.00 0.00 0.00 0.00 0.00 0.00 0.00 0.00 0.00 0.00 0.00 0.00 0.00 0.00 0.00 0.00 0.00 0.00 0.00 0.00 0.00 0.00 0.00 0.00 0.00 0.00 0.00 0.00 0.00 0.00 0.00 0.00 0.00 0.00 0.00 0.00 0.00
0.00 0.00 0.00 0.00 0.00 0.00 0.00 0.00 0.00 0.00 0.00 0.00 0.00 0.00 0.00 0.00 0.00 0.00 0.00 0.00 0.00 0.00 0.00 0.00 0.00 0.00 0.00 0.00 0.00 0.00 0.00 0.00 0.00 0.00 0.00 0.00 0.00 0.00 0.00 0.00 0.00 0.00 0.00 0.00
0.00 0.00 0.00 0.00 0.00 0.00 0.00 0.00 0.00 0.00 0.00 0.00 0.00 0.00 0.00 0.00 0.00 0.00 0.00 0.00 0.00 0.00 0.00 0.00 0.00 0.00 0.00 0.00 0.00 0.00 0.00 0.00 0.00 0.00 0.00 0.00 0.00 0.00 0.00 0.00 0.00 0.00 0.00 0.00
0.00 0.00 0.00 0.00 0.00 0.00 0.00 0.00 0.00 0.00 0.00 0.00 0.00 0.00 0.00 0.00 0.00 0.00 0.00 0.00 0.00 0.00 0.00 0.00 0.00 0.00 0.00 0.00 0.00 0.00 0.00 0.01 0.00 0.00 0.00 0.00 0.00 0.00 0.00 0.00 0.00 0.00 0.00 0.00
0.00 0.00 0.00 0.00 0.00 0.00 0.00 0.00 0.00 0.00 0.00 0.00 0.00 0.00 0.00 0.00 0.00 0.00 0.00 0.00 0.00 0.00 0.00 0.00 0.00 0.00 0.02 0.01 0.01 0.03 0.04 0.06 0.05 0.02 0.01 0.01 0.00 0.00 0.00 0.00 0.00 0.00 0.00 0.00
0.00 0.00 0.00 0.00 0.00 0.00 0.00 0.00 0.01 0.01 0.00 0.00 0.00 0.00 0.00 0.00 0.00 0.00 0.00 0.00 0.00 0.00 0.00 0.00 0.00 0.00 0.00 0.01 0.04 0.10 0.11 0.11 0.13 0.11 0.06 0.02 0.02 0.01 0.00 0.00 0.00 0.00 0.00 0.00
0.00 0.01 0.02 0.01 0.01 0.01 0.01 0.01 0.01 0.01 0.00 0.00 0.00 0.00 0.00 0.00 0.00 0.00 0.00 0.00 0.00 0.00 0.00 0.00 0.00 0.00 0.01 0.06 0.09 0.07 0.07 0.07 0.07 0.09 0.05 0.02 0.01 0.01 0.00 0.00 0.00 0.00 0.00 0.00
0.00 0.03 0.05 0.04 0.01 0.01 0.00 0.00 0.01 0.00 0.00 0.00 0.00 0.00 0.00 0.00 0.00 0.00 0.00 0.00 0.00 0.00 0.00 0.00 0.00 0.00 0.01 0.03 0.03 0.02 0.02 0.01 0.02 0.02 0.01 0.01 0.00 0.00 0.00 0.00 0.00 0.00 0.00 0.00
0.02 0.01 0.03 0.01 0.01 0.01 0.00 0.00 0.00 0.00 0.00 0.00 0.00 0.00 0.00 0.00 0.00 0.00 0.00 0.00 0.00 0.00 0.00 0.00 0.00 0.00 0.00 0.00 0.00 0.00 0.00 0.01 0.01 0.01 0.01 0.00 0.00 0.00 0.00 0.00 0.00 0.00 0.00 0.00
MSLP
999.98 999.32 998.77 998.41 998.15 998.06 998.45 999.06 999.97 1001.93 1003.90 1006.22 1005.82 1006.67 1007.18 1005.38 1005.39 1005.29 1006.01 1006.67 1007.43 1007.97 1008.93 1009.86 1010.72 1010.98 1011.36 1011.44 1011.85 1012.36 1012.68 1012.59 1012.93 1013.56 1014.01 1014.55 1014.89 1015.07 1015.35 1015.49 1015.85 1016.10 1016.37 1016.59
1000.70 1000.03 999.28 998.44 998.49 998.87 998.25 998.39 999.47 1000.96 1004.27 1005.39 1005.21 1004.77 1005.43 1006.34 1005.95 1005.69 1006.08 1006.75 1007.62 1008.64 1009.09 1009.88 1010.61 1010.95 1011.14 1011.38 1011.76 1012.20 1012.54 1012.48 1012.99 1013.60 1013.99 1014.38 1014.69 1014.98 1015.40 1015.56 1015.96 1016.06 1016.22 1016.48
1001.18 1000.56 999.74 998.53 997.91 997.59 997.72 998.20 999.15 1001.05 1003.30 1005.81 1006.63 1006.35 1006.70 1006.15 1006.13 1005.88 1006.21 1006.91 1007.61 1008.32 1008.94 1009.59 1010.35 1010.79 1011.03 1011.44 1011.75 1012.19 1012.37 1012.55 1013.04 1013.43 1014.06 1014.20 1014.54 1015.04 1015.31 1015.57 1015.91 1016.19 1016.42 1016.79
1001.63 1001.03 999.67 998.76 997.97 997.57 997.95 998.59 999.97 1002.43 1004.25 1005.37 1005.98 1006.99 1006.45 1006.50 1006.19 1006.45 1006.84 1007.33 1007.62 1008.11 1008.71 1009.46 1010.03 1010.73 1011.17 1011.48 1011.92 1012.11 1012.45 1012.60 1012.97 1013.21 1013.94 1014.05 1014.29 1014.83 1015.24 1015.58 1015.90 1016.30 1016.54 1016.87
1002.17 1001.19 1000.16 999.05 998.31 998.02 998.38 999.99 1000.74 1003.71 1005.73 1005.25 1005.11 1005.61 1006.88 1007.28 1006.75 1007.38 1007.88 1008.05 1008.35 1008.35 1008.63 1009.33 1009.99 1010.87 1011.41 1011.76 1012.15 1012.54 1012.88 1013.29 1013.61 1013.77 1013.90 1014.06 1014.20 1014.55 1014.80 1015.39 1015.87 1016.28 1016.53 1016.83
1002.16 1001.27 1000.35 999.65 999.89 999.90 999.62 1001.85 1002.84 1003.17 1005.41 1004.15 1005.52 1005.11 1007.55 1007.85 1008.24 1008.67 1009.06 1009.04 1009.01 1008.79 1009.05 1009.67 1010.55 1011.34 1011.73 1012.03 1012.42 1012.91 1013.33 1013.61 1013.99 1014.33 1014.51 1014.32 1013.71 1014.37 1014.85 1015.32 1015.58 1016.05 1016.44 1016.81
1002.55 1002.07 1001.18 1001.93 1001.62 1000.39 1003.46 1004.93 1003.70 1003.28 1004.23 1005.11 1004.93 1005.84 1007.43 1008.60 1009.23 1009.60 1009.58 1009.93 1009.91 1009.65 1009.80 1010.52 1011.11 1011.68 1011.84 1012.19 1012.56 1012.96 1013.29 1013.48 1013.55 1014.69 1014.44 1014.63 1013.89 1014.41 1014.76 1015.22 1015.48 1015.99 1016.39 1016.84
1002.95 1002.71 1002.90 1003.56 1003.36 1003.64 1004.26 1004.10 1001.05 1003.45 1004.05 1004.46 1005.25 1006.47 1007.47 1008.59 1009.41 1009.93 1010.24 1010.41 1010.70 1010.97 1011.35 1011.67 1011.81 1012.06 1012.14 1012.33 1012.93 1013.36 1013.65 1013.83 1014.36 1014.49 1014.78 1014.56 1014.42 1014.56 1014.94 1015.12 1015.69 1016.17 1016.61 1017.05
1004.80 1003.75 1004.58 1004.41 1004.57 1004.25 1004.40 1004.05 1003.16 1003.79 1004.62 1004.69 1005.19 1006.25 1007.49 1009.06 1009.96 1010.49 1010.71 1010.96 1011.15 1011.62 1012.06 1012.55 1012.74 1012.66 1012.82 1013.14 1013.28 1013.55 1013.85 1014.16 1014.54 1014.78 1014.79 1014.83 1014.87 1014.61 1015.03 1015.51 1015.94 1016.42 1016.74 1017.04
1008.23 1005.74 1004.45 1004.71 1004.86 1004.47 1004.03 1004.25 1004.23 1004.47 1004.61 1004.63 1005.68 1006.46 1007.63 1008.97 1009.93 1010.43 1010.63 1010.79 1011.09 1011.67 1012.37 1013.00 1013.43 1013.54 1013.73 1013.77 1013.92 1014.16 1014.34 1014.57 1014.74 1014.91 1014.95 1015.02 1015.23 1015.22 1015.53 1015.81 1016.18 1016.38 1016.70 1017.00
1006.55 1005.25 1004.52 1004.55 1004.59 1004.32 1004.79 1004.97 1004.37 1004.62 1004.61 1005.26 1005.89 1006.78 1007.83 1008.80 1009.61 1010.22 1010.54 1010.74 1011.03 1011.62 1012.33 1013.03 1013.60 1013.81 1014.09 1014.38 1014.53 1014.62 1014.64 1014.67 1014.92 1015.04 1015.32 1015.72 1016.25 1016.39 1016.21 1016.10 1016.28 1016.37 1016.61 1016.81
1005.88 1004.95 1004.50 1005.05 1005.09 1004.82 1005.09 1004.97 1005.10 1005.50 1005.84 1006.01 1006.49 1007.51 1008.34 1008.90 1009.55 1010.13 1010.69 1011.05 1011.42 1011.90 1012.29 1012.95 1013.41 1013.65 1014.05 1014.56 1014.54 1014.77 1014.83 1014.88 1014.93 1015.15 1015.56 1015.95 1016.43 1016.73 1016.84 1016.67 1016.67 1016.74 1016.98 1016.95
1009.46 1003.79 1005.40 1005.59 1005.47 1005.51 1005.41 1005.93 1006.01 1006.47 1007.02 1007.52 1008.08 1008.55 1008.95 1009.60 1010.31 1010.63 1010.88 1011.08 1011.33 1011.66 1012.14 1012.47 1012.77 1013.15 1013.73 1014.34 1014.71 1014.78 1014.86 1014.75 1014.74 1014.89 1015.39 1015.84 1016.33 1016.55 1016.79 1017.02 1016.81 1016.94 1017.23 1017.20
1008.27 1004.33 1005.78 1006.01 1006.40 1006.84 1007.68 1008.01 1008.25 1008.88 1009.39 1009.60 1009.66 1009.74 1009.85 1010.13 1010.56 1010.59 1010.82 1011.16 1011.49 1011.63 1011.87 1012.11 1012.31 1012.47 1012.92 1013.47 1014.15 1014.49 1014.80 1014.82 1014.75 1014.53 1014.59 1015.05 1015.61 1015.97 1016.23 1016.43 1016.62 1017.04 1017.37 1017.47
1009.90 1006.30 1005.83 1007.27 1008.63 1009.61 1010.13 1010.75 1010.83 1010.77 1010.92 1010.62 1010.86 1010.95 1010.98 1011.27 1010.88 1010.95 1011.21 1011.34 1011.57 1011.72 1011.89 1011.96 1012.19 1012.35 1012.31 1012.57 1013.17 1013.74 1014.09 1014.16 1014.02 1014.07 1014.20 1014.45 1014.83 1015.09 1015.23 1015.46 1015.73 1016.22 1017.13 1017.59
1010.95 1009.09 1008.69 1008.33 1009.79 1010.85 1011.59 1011.85 1012.28 1012.72 1012.35 1011.88 1011.67 1012.01 1011.93 1011.74 1011.48 1011.25 1010.94 1011.13 1011.46 1011.61 1011.80 1011.83 1012.10 1012.00 1012.09 1012.34 1012.80 1013.05 1013.29 1013.61 1013.79 1013.69 1013.72 1013.80 1014.00 1014.17 1014.21 1014.48 1014.88 1015.36 1015.73 1016.19
1009.67 1009.87 1008.83 1009.17 1010.70 1011.57 1011.32 1011.85 1011.62 1011.72 1011.82 1011.58 1011.72 1011.79 1011.83 1011.68 1011.46 1011.35 1011.43 1011.39 1011.49 1011.55 1011.53 1011.33 1011.44 1011.53 1011.73 1012.09 1012.45 1012.63 1012.68 1012.85 1013.14 1013.31 1013.19 1012.94 1013.01 1012.91 1012.83 1012.82 1013.17 1013.65 1013.90 1014.25
1009.41 1009.48 1009.31 1009.62 1010.57 1011.64 1012.74 1011.87 1011.19 1011.27 1011.00 1011.30 1011.67 1011.89 1011.88 1011.87 1011.77 1011.79 1011.74 1011.61 1011.56 1011.49 1011.36 1011.03 1010.95 1010.93 1010.91 1011.15 1011.61 1012.07 1012.17 1012.28 1012.48 1012.89 1012.54 1012.18 1012.18 1011.87 1011.78 1011.65 1012.03 1012.43 1012.52 1013.66
1010.20 1010.11 1010.15 1010.34 1011.05 1011.77 1012.69 1011.51 1011.13 1011.35 1011.58 1011.99 1012.18 1012.31 1012.39 1012.18 1012.00 1012.01 1011.91 1011.80 1011.69 1011.42 1011.21 1011.23 1011.23 1010.99 1010.85 1010.90 1011.17 1011.41 1011.74 1011.81 1011.78 1012.27 1012.02 1011.74 1011.49 1011.13 1011.12 1011.14 1011.41 1011.76 1012.38 1013.50
1011.12 1011.18 1011.04 1011.09 1011.06 1011.47 1011.73 1011.75 1011.60 1011.81 1011.90 1012.15 1012.63 1012.67 1012.43 1012.24 1012.17 1012.16 1012.09 1012.03 1011.98 1011.83 1011.61 1011.34 1011.18 1010.77 1010.49 1010.38 1010.60 1010.78 1011.11 1011.28 1011.24 1011.80 1011.89 1011.65 1011.59 1011.16 1011.41 1011.73 1011.54 1011.65 1011.77 1012.43
1011.20 1011.12 1011.02 1010.94 1011.17 1011.47 1011.46 1011.59 1011.96 1012.14 1012.39 1012.44 1012.81 1012.86 1012.95 1013.07 1013.03 1012.81 1012.46 1012.03 1011.65 1011.64 1011.95 1011.38 1010.96 1010.61 1010.38 1009.87 1009.97 1010.00 1010.12 1010.46 1010.73 1011.27 1011.61 1011.67 1011.81 1011.74 1012.21 1012.29 1012.67 1012.57 1013.09 1012.88
1012.32 1011.91 1011.61 1011.58 1011.80 1011.84 1011.92 1012.25 1012.21 1012.60 1013.04 1013.39 1013.71 1013.96 1014.07 1013.87 1013.73 1013.62 1013.50 1013.46 1013.03 1012.69 1012.71 1011.86 1011.26 1011.91 1011.73 1011.11 1009.56 1009.45 1009.35 1009.86 1010.33 1010.79 1011.27 1011.54 1011.77 1012.03 1012.19 1012.67 1013.15 1013.80 1013.47 1013.21
1013.53 1013.37 1013.21 1012.85 1012.65 1012.62 1012.59 1013.05 1013.16 1013.49 1013.92 1014.42 1014.55 1014.85 1014.80 1014.63 1014.51 1014.23 1013.93 1013.61 1013.55 1013.31 1013.29 1012.53 1012.27 1012.32 1012.12 1011.35 1010.19 1009.54 1009.81 1009.37 1010.01 1010.51 1010.93 1011.36 1011.97 1012.05 1012.55 1013.30 1013.50 1013.68 1013.87 1013.94
1014.45 1014.30 1014.13 1013.76 1013.81 1013.55 1013.61 1013.75 1013.83 1014.23 1014.49 1014.93 1015.11 1015.32 1015.47 1015.34 1015.24 1015.05 1014.87 1014.50 1014.31 1014.06 1013.76 1013.26 1012.89 1012.71 1012.40 1011.37 1010.47 1010.19 1010.33 1010.21 1010.18 1010.94 1011.50 1011.15 1012.18 1012.97 1013.35 1013.77 1014.06 1014.21 1014.39 1014.33
1014.60 1014.40 1014.23 1014.11 1014.04 1013.97 1014.14 1014.11 1014.38 1014.74 1014.95 1015.21 1015.66 1015.90 1016.09 1016.11 1016.12 1015.82 1015.50 1015.10 1014.69 1014.22 1013.69 1013.20 1013.03 1012.66 1011.74 1011.30 1011.27 1011.39 1011.35 1011.57 1011.71 1011.96 1012.21 1012.62 1013.08 1013.13 1013.74 1013.87 1014.03 1014.14 1014.44 1014.75
1014.77 1014.53 1014.71 1014.63 1014.56 1014.43 1014.39 1014.45 1014.67 1014.80 1015.27 1015.59 1015.81 1016.01 1016.23 1016.29 1016.15 1015.93 1015.66 1015.30 1014.86 1014.39 1014.03 1013.77 1013.49 1013.05 1012.87 1012.72 1012.64 1012.64 1012.73 1012.91 1013.08 1013.35 1013.43 1013.81 1013.94 1013.83 1014.05 1014.33 1014.45 1014.44 1014.59 1014.35
1015.16 1015.30 1014.79 1014.55 1014.83 1014.91 1014.96 1015.09 1014.89 1014.93 1015.09 1015.35 1015.51 1015.69 1015.78 1016.11 1016.13 1015.96 1015.88 1015.57 1015.33 1015.11 1014.82 1014.52 1014.21 1013.96 1013.82 1013.70 1013.84 1013.96 1014.01 1014.03 1013.93 1014.33 1014.29 1014.34 1014.27 1014.25 1014.28 1014.51 1014.63 1014.65 1014.37 1014.24
Thickness
5810 5824 5829 5829 5827 5834 5824 5828 5812 5812 5787 5780 5791 5787 5770 5818 5820 5816 5812 5809 5804 5800 5792 5782 5773 5772 5768 5766 5760 5754 5748 5746 5743 5739 5738 5732 5728 5727 5728 5727 5724 5722 5718 5717
5786 5811 5818 5818 5822 5792 5818 5837 5832 5834 5786 5793 5808 5818 5809 5807 5807 5809 5808 5805 5800 5790 5789 5779 5771 5767 5767 5764 5758 5753 5748 5745 5742 5737 5733 5731 5728 5725 5724 5723 5719 5719 5718 5715
5761 5797 5803 5792 5820 5833 5837 5844 5838 5814 5808 5788 5784 5792 5791 5803 5807 5808 5807 5801 5796 5791 5787 5780 5772 5768 5764 5760 5758 5749 5747 5746 5740 5734 5729 5728 5726 5722 5720 5719 5717 5714 5712 5710
5760 5780 5750 5808 5845 5849 5836 5843 5837 5806 5791 5784 5782 5778 5801 5807 5806 5804 5801 5797 5794 5791 5786 5780 5777 5767 5762 5758 5753 5748 5741 5738 5734 5729 5726 5724 5723 5719 5716 5715 5712 5708 5708 5706
5746 5757 5784 5808 5829 5833 5828 5826 5831 5790 5771 5779 5789 5796 5787 5796 5805 5797 5793 5791 5787 5789 5785 5779 5774 5764 5756 5751 5745 5739 5731 5726 5720 5719 5720 5719 5718 5715 5716 5711 5708 5704 5704 5703
5759 5749 5747 5804 5816 5819 5832 5792 5789 5777 5739 5750 5778 5771 5768 5789 5787 5783 5780 5780 5779 5782 5779 5771 5764 5756 5748 5742 5737 5729 5724 5718 5712 5709 5707 5710 5715 5708 5709 5707 5706 5703 5701 5700
5752 5750 5780 5784 5789 5815 5745 5747 5774 5785 5777 5782 5781 5784 5779 5777 5772 5770 5770 5767 5769 5771 5766 5759 5756 5748 5742 5737 5731 5727 5722 5717 5712 5702 5695 5703 5697 5697 5701 5703 5702 5698 5697 5694
5757 5753 5746 5760 5767 5748 5748 5743 5777 5783 5786 5784 5782 5779 5775 5769 5763 5760 5758 5759 5757 5751 5746 5745 5745 5739 5734 5731 5726 5721 5717 5712 5704 5700 5698 5700 5700 5699 5698 5697 5694 5692 5691 5687
5738 5741 5747 5755 5735 5761 5768 5765 5773 5780 5781 5781 5779 5775 5770 5757 5752 5749 5749 5747 5747 5741 5737 5733 5730 5729 5724 5721 5720 5716 5712 5708 5703 5698 5697 5698 5697 5699 5695 5692 5688 5685 5683 5682
5666 5722 5744 5745 5747 5763 5764 5766 5773 5777 5778 5778 5769 5769 5762 5754 5746 5743 5744 5741 5740 5735 5727 5720 5717 5715 5713 5712 5709 5705 5702 5698 5697 5695 5694 5694 5692 5692 5690 5687 5684 5682 5679 5677
5717 5728 5744 5743 5735 5749 5754 5759 5766 5770 5772 5766 5765 5759 5754 5746 5742 5738 5736 5736 5733 5727 5720 5713 5709 5706 5704 5701 5698 5694 5692 5691 5690 5689 5687 5684 5679 5677 5681 5681 5680 5680 5677 5675
5720 5730 5728 5730 5742 5749 5748 5753 5758 5756 5756 5757 5754 5744 5741 5736 5735 5731 5726 5724 5720 5715 5712 5707 5703 5701 5697 5693 5692 5687 5685 5685 5687 5686 5682 5678 5674 5672 5668 5669 5668 5668 5667 5670
5680 5719 5716 5722 5733 5742 5746 5746 5749 5747 5743 5730 5729 5727 5726 5724 5718 5712 5716 5714 5711 5709 5706 5705 5702 5698 5693 5688 5684 5681 5679 5680 5681 5681 5676 5673 5669 5667 5665 5661 5660 5658 5656 5657
5660 5707 5709 5717 5714 5722 5714 5715 5715 5708 5705 5707 5709 5710 5714 5714 5707 5708 5706 5705 5704 5702 5700 5699 5696 5694 5693 5688 5680 5676 5673 5669 5672 5676 5677 5672 5668 5664 5662 5660 5658 5654 5648 5646
5646 5681 5704 5699 5683 5681 5679 5678 5675 5679 5683 5689 5692 5692 5690 5686 5693 5692 5695 5696 5695 5692 5691 5691 5687 5684 5689 5687 5680 5674 5671 5670 5672 5672 5671 5668 5664 5662 5662 5659 5657 5652 5641 5634
5641 5672 5678 5681 5663 5656 5653 5657 5654 5651 5661 5666 5673 5670 5671 5673 5679 5683 5689 5689 5683 5681 5682 5682 5679 5681 5680 5680 5673 5671 5669 5665 5662 5664 5664 5663 5661 5658 5657 5654 5649 5645 5641 5636
5646 5648 5671 5668 5647 5643 5654 5654 5659 5653 5661 5667 5667 5670 5669 5671 5671 5674 5676 5677 5676 5676 5677 5679 5676 5678 5674 5671 5666 5663 5664 5662 5659 5657 5655 5656 5656 5655 5656 5654 5649 5644 5644 5640
5654 5659 5661 5659 5652 5642 5631 5646 5650 5653 5662 5664 5662 5661 5660 5659 5658 5660 5663 5665 5666 5667 5669 5671 5674 5675 5673 5670 5664 5658 5656 5655 5654 5648 5649 5649 5648 5652 5650 5650 5643 5638 5639 5631
5639 5642 5644 5643 5642 5635 5624 5636 5646 5644 5646 5646 5648 5647 5647 5649 5650 5652 5654 5654 5654 5655 5659 5659 5659 5662 5661 5659 5655 5651 5646 5644 5645 5639 5640 5640 5642 5645 5641 5641 5638 5632 5626 5618
5621 5627 5631 5632 5637 5632 5629 5631 5636 5636 5636 5636 5634 5634 5637 5640 5641 5641 5642 5641 5641 5642 5645 5646 5645 5648 5650 5650 5645 5642 5637 5635 5634 5627 5625 5625 5625 5628 5624 5621 5622 5619 5618 5615
5615 5620 5623 5626 5627 5627 5628 5627 5625 5624 5624 5626 5623 5622 5621 5622 5623 5624 5625 5628 5633 5633 5628 5632 5636 5636 5637 5641 5640 5635 5632 5628 5625 5618 5613 5612 5609 5609 5604 5606 5599 5600 5591 5594
5602 5608 5613 5615 5614 5616 5618 5617 5618 5617 5612 5610 5607 5605 5604 5606 5607 5607 5607 5605 5610 5610 5611 5617 5619 5612 5614 5617 5629 5628 5627 5622 5616 5611 5605 5600 5598 5596 5596 5593 5587 5580 5581 5582
5588 5592 5594 5599 5602 5605 5608 5605 5604 5602 5598 5594 5593 5590 5590 5591 5592 5592 5594 5596 5595 5596 5595 5600 5599 5596 5596 5603 5611 5615 5612 5615 5607 5602 5597 5592 5587 5586 5581 5575 5573 5571 5567 5567
5577 5580 5582 5588 5589 5591 5589 5592 5592 5589 5588 5583 5581 5580 5578 5578 5577 5579 5580 5581 5579 5578 5578 5582 5583 5581 5582 5592 5597 5598 5597 5596 5593 5588 5579 5584 5572 5565 5562 5558 5556 5556 5552 5552
5574 5577 5580 5581 5582 5583 5582 5584 5582 5579 5577 5575 5571 5568 5566 5564 5563 5563 5565 5566 5567 5569 5572 5574 5572 5572 5580 5582 5580 5576 5574 5570 5567 5565 5560 5558 5556 5553 5548 5546 5544 5543 5539 5534
5570 5573 5571 5573 5575 5576 5576 5576 5573 5573 5568 5564 5561 5559 5556 5554 5555 5555 5556 5556 5558 5559 5560 5560 5559 5561 5560 5559 5556 5553 5549 5545 5542 5540 5539 5535 5535 5536 5534 5531 5528 5527 5524 5525
5564 5559 5568 5569 5567 5566 5566 5564 5566 5565 5564 5560 5558 5555 5553 5550 5548 5548 5546 5546 5546 5545 5545 5546 5546 5545 5543 5541 5537 5532 5528 5525 5524 5521 5521 5521 5519 5519 5519 5516 5513 5510 5510 5510